Temp
9 9 9 10 10 10 10 10 9 9 9 9 9 9 9 9 9 9 9 9 9 9 9 9 9 9 9 9 8 8 8 6 6 6 7 6 6 6 6 6 6 5 5 5 5
9 9 10 10 10 10 10 9 9 9 9 9 9 9 9 9 9 9 9 8 9 9 9 9 9 9 9 9 9 8 8 7 6 7 7 7 6 6 6 6 5 5 5 5 4
9 10 10 10 10 10 9 9 9 9 9 9 9 9 9 10 9 9 9 9 8 8 8 9 9 9 9 8 9 9 8 7 7 7 6 6 6 6 5 5 5 5 4 4 4
10 10 10 10 10 10 9 9 9 8 8 8 9 9 9 9 9 8 9 9 9 9 8 9 9 9 9 9 8 9 7 7 7 6 6 6 6 5 5 5 5 4 4 4 4
10 10 10 10 10 9 9 8 8 8 8 8 9 9 9 9 9 8 8 9 9 9 9 10 9 9 9 9 8 8 7 7 7 6 6 5 5 5 5 5 4 4 3 3 3
10 10 10 10 9 9 9 8 8 8 8 8 8 8 8 9 8 8 8 8 8 9 9 9 9 8 8 8 8 7 7 7 6 6 6 5 5 5 5 4 3 3 2 3 4
10 10 9 9 9 9 8 8 8 8 8 8 8 8 7 8 8 8 9 8 9 9 9 9 9 8 8 8 7 7 7 6 6 6 6 5 5 4 3 2 2 3 4 3 4
10 10 9 9 9 9 8 8 8 7 8 7 7 7 8 7 8 8 8 9 9 8 9 9 8 8 8 7 7 7 6 6 6 6 6 5 5 4 3 2 2 2 2 3 4
10 9 9 9 9 9 8 8 8 8 8 8 8 7 8 7 8 8 8 8 9 9 8 8 8 8 7 6 7 6 6 6 6 6 5 5 5 4 3 2 1 2 2 3 2
10 9 9 9 9 8 8 8 8 8 8 8 8 8 8 8 8 8 8 8 9 8 8 8 8 7 7 6 6 6 6 6 6 6 5 4 5 4 3 1 1 2 1 1 -0
10 9 9 9 9 8 8 8 8 8 8 8 8 8 8 8 8 8 8 8 9 8 8 8 7 7 7 7 7 6 6 6 6 5 5 4 5 3 2 2 2 1 -0 -2 -1
9 9 9 8 9 9 9 9 8 8 8 8 8 8 8 8 8 8 8 9 8 8 8 7 8 7 7 7 7 7 6 6 6 5 4 4 4 3 4 3 2 1 -2 -2 -1
9 8 8 8 8 8 8 8 8 9 8 8 8 8 8 8 8 8 8 8 8 8 8 7 7 7 7 7 7 7 6 6 5 5 5 4 4 4 3 2 1 -2 -2 -1 -2
8 8 8 8 8 8 8 8 8 8 8 8 8 8 8 8 8 8 8 8 8 8 8 8 7 7 8 7 7 7 6 5 5 4 4 3 3 3 2 1 -1 -2 -2 -2 -4
8 8 8 8 8 8 8 8 8 8 7 7 8 8 8 8 8 8 8 8 8 8 7 7 7 7 7 7 7 6 7 5 4 4 3 3 2 2 1 0 -2 -2 -2 -4 -4
8 8 8 8 8 8 8 8 8 8 7 7 8 8 8 8 8 8 8 8 8 7 7 7 7 7 7 6 6 7 7 7 5 3 2 5 4 1 1 0 -1 -2 -4 -4 -3
8 8 8 8 8 8 8 8 8 8 7 7 8 8 8 8 8 7 8 8 8 7 6 7 7 6 7 7 6 6 6 5 3 1 2 4 2 3 1 -0 -2 -3 -3 -3 -4
8 8 8 8 8 8 8 9 8 7 7 8 7 7 7 7 7 7 8 7 7 7 6 6 7 6 6 6 6 5 4 4 2 0 3 3 3 3 1 -0 -1 -1 -2 -3 -5
8 8 8 8 8 8 8 9 8 7 8 7 7 7 7 7 7 7 7 7 7 7 7 7 6 6 6 6 6 5 4 3 3 2 2 3 3 2 2 0 -0 -1 -3 -5 -5
8 8 8 8 8 8 8 8 8 8 8 8 7 7 7 7 7 6 7 6 6 6 6 6 6 6 6 6 5 5 4 4 2 0 -0 3 4 4 2 0 -1 -3 -4 -4 -6
8 8 8 8 8 8 8 9 8 8 8 8 8 7 7 7 7 7 7 6 6 6 6 6 6 6 6 6 5 5 4 3 2 2 -0 -3 2 3 1 -1 -3 -3 -3 -5 -6
8 8 9 8 8 9 9 9 8 8 8 8 8 7 7 7 7 7 7 7 6 6 6 6 6 6 6 5 5 5 3 3 2 2 1 1 1 2 0 -1 -2 -3 -5 -6 -6
8 9 9 8 9 9 9 8 8 8 8 8 8 8 7 7 7 7 7 7 6 6 6 6 6 6 6 5 5 5 4 3 1 0 2 -0 3 2 -0 -1 -2 -4 -5 -6 -7
8 8 8 8 9 9 9 8 8 8 8 8 8 7 7 7 7 7 7 7 7 7 6 6 6 5 5 5 5 4 4 3 2 -0 2 3 3 1 -0 -1 -2 -4 -5 -6 -7
8 8 8 8 8 8 8 9 8 8 8 8 7 7 7 7 7 7 7 7 7 7 6 6 6 6 6 6 5 5 4 3 2 3 0 4 2 1 -0 -1 -3 -4 -6 -7 -8
8 8 8 8 8 8 8 8 8 8 8 8 7 7 7 7 7 7 7 7 7 6 6 6 5 6 6 6 5 5 5 5 4 3 3 3 1 0 -1 -2 -3 -5 -6 -7 -8
7 8 8 8 8 8 8 8 8 8 8 8 7 7 7 7 7 7 7 7 7 7 6 6 5 5 5 5 5 5 5 4 4 4 3 2 1 -0 -1 -3 -4 -5 -6 -7 -8
Height
3170 3172 3174 3176 3176 3177 3178 3179 3180 3181 3181 3182 3183 3184 3185 3186 3187 3189 3191 3192 3193 3195 3196 3196 3197 3197 3199 3199 3198 3199 3198 3202 3204 3206 3206 3207 3208 3208 3208 3207 3206 3205 3204 3203 3202
3173 3174 3176 3177 3177 3178 3180 3180 3182 3182 3184 3184 3186 3187 3188 3189 3189 3191 3193 3194 3195 3197 3199 3199 3198 3200 3200 3201 3201 3200 3201 3203 3205 3207 3208 3209 3210 3209 3208 3207 3205 3204 3203 3202 3200
3175 3177 3177 3178 3179 3180 3181 3182 3183 3184 3186 3187 3188 3189 3190 3191 3191 3192 3194 3195 3196 3198 3198 3200 3200 3200 3201 3201 3201 3201 3202 3204 3206 3208 3208 3208 3208 3208 3206 3205 3204 3203 3201 3199 3197
3178 3178 3179 3180 3181 3182 3182 3184 3185 3186 3188 3189 3190 3192 3192 3192 3195 3194 3195 3196 3197 3198 3198 3198 3199 3201 3200 3201 3201 3201 3203 3205 3206 3207 3208 3207 3207 3205 3204 3204 3201 3199 3197 3195 3194
3179 3180 3181 3181 3183 3184 3184 3186 3188 3189 3190 3191 3192 3193 3193 3194 3194 3196 3197 3199 3200 3200 3200 3200 3201 3201 3201 3202 3203 3204 3205 3206 3207 3207 3207 3206 3205 3204 3202 3200 3199 3197 3195 3192 3191
3181 3182 3183 3183 3184 3186 3186 3188 3189 3191 3192 3193 3195 3195 3195 3197 3197 3198 3199 3201 3201 3202 3202 3202 3201 3202 3203 3204 3205 3206 3206 3207 3207 3207 3206 3205 3204 3202 3200 3198 3196 3193 3191 3189 3186
3182 3183 3184 3185 3186 3187 3189 3190 3191 3193 3194 3195 3196 3196 3196 3199 3199 3200 3201 3201 3202 3202 3202 3202 3203 3204 3205 3205 3206 3205 3207 3207 3207 3206 3205 3202 3201 3198 3196 3194 3191 3187 3185 3183 3182
3183 3185 3186 3187 3188 3190 3191 3192 3193 3195 3196 3196 3197 3197 3198 3199 3201 3202 3203 3203 3203 3204 3204 3204 3205 3205 3206 3206 3206 3206 3207 3206 3205 3203 3202 3201 3197 3195 3194 3191 3189 3186 3183 3181 3179
3184 3186 3188 3188 3190 3191 3193 3194 3195 3197 3198 3199 3199 3199 3201 3202 3203 3204 3204 3205 3205 3205 3205 3206 3207 3206 3206 3206 3206 3206 3205 3204 3202 3201 3199 3198 3194 3193 3192 3189 3187 3184 3181 3179 3176
3185 3187 3189 3189 3191 3193 3195 3197 3199 3200 3201 3201 3202 3203 3204 3205 3204 3206 3206 3207 3207 3207 3208 3208 3207 3206 3205 3205 3206 3206 3205 3203 3202 3202 3198 3195 3192 3191 3191 3188 3185 3182 3179 3176 3173
3186 3188 3190 3191 3193 3194 3197 3199 3203 3204 3202 3203 3204 3205 3205 3207 3207 3208 3208 3208 3208 3208 3208 3208 3208 3208 3207 3206 3206 3205 3204 3203 3201 3200 3198 3195 3191 3189 3188 3185 3182 3180 3177 3174 3170
3186 3189 3191 3192 3195 3197 3200 3202 3203 3205 3205 3205 3206 3207 3208 3209 3209 3209 3210 3211 3208 3208 3209 3210 3209 3208 3207 3205 3205 3204 3203 3201 3199 3198 3196 3192 3189 3185 3185 3183 3181 3178 3174 3170 3168
3187 3190 3192 3194 3197 3199 3201 3203 3205 3206 3207 3209 3209 3210 3210 3211 3210 3210 3210 3210 3209 3209 3208 3209 3209 3207 3206 3205 3204 3203 3202 3201 3199 3194 3191 3189 3185 3181 3182 3180 3179 3175 3171 3168 3165
3188 3191 3193 3196 3200 3200 3203 3204 3206 3207 3209 3212 3211 3212 3212 3211 3212 3211 3210 3212 3209 3209 3208 3209 3208 3208 3206 3204 3203 3202 3201 3198 3195 3193 3190 3188 3185 3179 3178 3177 3176 3171 3167 3164 3161
3189 3192 3194 3198 3200 3202 3205 3205 3207 3208 3210 3215 3213 3212 3211 3212 3213 3212 3211 3210 3209 3209 3210 3210 3208 3207 3206 3204 3202 3202 3199 3195 3192 3191 3188 3184 3185 3176 3175 3173 3171 3167 3164 3161 3158
3190 3193 3197 3201 3203 3205 3205 3206 3208 3211 3211 3213 3213 3213 3213 3212 3212 3212 3212 3211 3210 3210 3209 3208 3208 3207 3206 3204 3202 3200 3197 3191 3189 3188 3187 3182 3184 3175 3171 3171 3168 3165 3162 3160 3156
3192 3195 3199 3203 3204 3205 3205 3207 3210 3209 3213 3214 3213 3213 3213 3212 3212 3212 3212 3211 3210 3210 3208 3208 3208 3207 3205 3204 3202 3200 3195 3192 3192 3190 3186 3181 3180 3172 3171 3169 3167 3164 3162 3158 3152
3194 3197 3200 3203 3204 3205 3206 3208 3208 3211 3211 3212 3213 3213 3213 3213 3213 3212 3211 3211 3210 3209 3208 3208 3207 3206 3205 3204 3202 3199 3198 3197 3198 3192 3185 3181 3177 3173 3171 3169 3166 3163 3158 3153 3148
3195 3198 3201 3204 3204 3205 3207 3207 3208 3209 3211 3212 3213 3213 3213 3213 3213 3213 3212 3212 3211 3209 3210 3208 3207 3206 3204 3203 3203 3200 3199 3197 3194 3190 3187 3178 3175 3170 3167 3165 3162 3157 3153 3148 3141
3195 3199 3201 3204 3205 3206 3207 3206 3208 3209 3211 3212 3213 3213 3213 3212 3213 3212 3212 3212 3211 3209 3208 3208 3206 3205 3204 3202 3202 3200 3199 3196 3194 3192 3187 3175 3172 3167 3164 3161 3157 3152 3149 3144 3138
3196 3199 3202 3203 3205 3206 3207 3207 3209 3210 3211 3213 3213 3213 3212 3212 3212 3212 3213 3213 3211 3209 3208 3207 3206 3206 3203 3201 3200 3199 3197 3196 3194 3191 3188 3182 3168 3164 3160 3156 3153 3150 3144 3139 3132
3196 3199 3201 3204 3206 3206 3207 3208 3210 3211 3212 3213 3213 3213 3212 3212 3212 3212 3212 3211 3210 3209 3208 3207 3205 3202 3201 3199 3198 3197 3194 3193 3191 3189 3185 3181 3165 3160 3156 3152 3149 3143 3138 3134 3128
3196 3198 3201 3203 3205 3206 3208 3209 3210 3211 3212 3213 3213 3213 3212 3212 3213 3212 3211 3211 3209 3208 3207 3206 3204 3201 3199 3200 3197 3194 3191 3189 3187 3185 3180 3179 3166 3159 3154 3148 3144 3140 3137 3131 3125
3195 3198 3201 3203 3205 3206 3207 3209 3210 3211 3212 3213 3213 3213 3212 3212 3212 3211 3211 3210 3208 3207 3206 3205 3203 3201 3200 3197 3194 3190 3187 3186 3184 3182 3176 3169 3162 3158 3153 3147 3143 3140 3135 3129 3124
3194 3196 3198 3201 3203 3205 3207 3208 3209 3210 3212 3213 3213 3212 3212 3211 3211 3210 3210 3209 3208 3206 3204 3203 3201 3199 3196 3193 3189 3186 3183 3180 3177 3175 3172 3165 3160 3157 3153 3148 3143 3138 3132 3126 3120
3192 3195 3197 3199 3202 3204 3206 3207 3208 3210 3211 3212 3212 3212 3211 3210 3210 3209 3208 3207 3207 3205 3203 3201 3199 3196 3192 3190 3186 3180 3178 3177 3173 3170 3165 3161 3155 3152 3147 3143 3138 3133 3128 3122 3116
3190 3193 3196 3198 3200 3202 3204 3206 3207 3208 3210 3210 3211 3211 3210 3209 3208 3208 3206 3205 3204 3203 3202 3200 3197 3193 3187 3185 3181 3177 3175 3173 3170 3167 3162 3156 3152 3147 3143 3139 3134 3129 3123 3117 3112
Wind_Speed
17 16 15 14 13 13 14 13 14 15 16 15 16 15 15 16 17 17 16 17 17 16 16 17 14 13 12 11 7 4 13 13 7 3 3 3 3 5 7 8 7 7 8 9 12
17 16 15 14 13 12 13 13 14 15 15 15 16 16 14 14 17 15 16 15 14 13 9 10 13 11 9 9 7 4 7 6 5 2 3 5 5 6 6 7 6 9 10 11 13
16 16 14 13 13 13 13 13 14 14 14 16 16 15 13 15 16 14 14 12 10 9 7 5 5 7 3 2 6 3 1 7 6 4 4 3 5 6 7 9 10 11 13 15 16
13 14 13 13 12 12 14 13 13 14 16 16 14 13 11 8 9 15 12 10 9 7 9 8 2 5 5 6 6 4 9 6 5 3 2 5 7 10 11 11 13 15 16 19 21
10 11 11 11 12 11 13 12 14 14 14 11 9 11 14 14 17 16 14 11 7 5 3 4 6 5 5 5 5 6 7 6 5 3 2 5 9 11 11 12 15 17 18 20 21
9 9 9 9 11 11 13 13 14 13 11 10 12 13 15 8 13 12 12 10 7 5 4 5 8 9 7 9 8 9 7 5 4 5 8 9 11 9 12 14 16 18 18 21 22
8 8 9 9 10 12 14 16 15 14 12 12 10 10 12 12 10 9 7 9 6 4 6 6 7 7 10 10 11 9 5 5 3 7 9 12 12 10 13 16 18 23 24 24 24
8 8 9 10 11 14 15 15 13 11 11 11 13 14 12 12 10 10 9 10 10 9 9 10 9 8 12 12 10 6 6 4 8 11 13 17 16 17 18 19 21 22 24 27 26
9 9 9 11 13 15 15 15 16 16 15 13 16 13 12 13 12 12 13 10 11 11 11 10 8 8 8 5 6 7 7 8 9 12 15 18 21 21 22 22 21 22 24 26 27
11 12 11 12 15 18 18 18 17 14 12 13 12 12 12 13 13 11 12 11 10 10 11 10 9 7 7 6 2 3 5 5 11 14 16 21 25 23 21 21 20 22 23 25 28
13 13 13 17 18 23 18 17 15 9 5 8 13 12 11 9 11 8 8 7 6 8 6 6 5 3 4 3 4 2 2 9 11 14 18 21 22 21 20 18 19 19 22 25 27
14 13 15 19 20 18 15 14 16 16 16 14 11 9 8 8 9 7 6 1 5 4 6 5 3 3 4 5 4 2 4 10 13 18 20 16 18 21 18 19 18 20 21 23 27
15 17 19 20 16 13 18 19 15 16 15 12 9 8 8 8 8 7 6 5 5 5 4 3 3 4 4 6 6 6 7 12 17 21 16 8 14 15 17 19 18 20 22 24 29
17 20 20 21 18 20 19 16 9 9 6 8 5 5 6 6 6 6 5 4 4 5 3 3 4 4 5 10 9 6 11 16 13 14 8 14 7 14 18 18 18 22 22 26 29
19 22 21 20 22 21 14 9 7 4 3 3 7 6 7 6 4 6 5 5 6 6 5 4 4 4 7 10 9 9 16 15 14 12 12 10 7 8 13 17 17 21 23 25 31
21 20 21 21 18 12 9 7 6 2 4 3 4 5 7 7 7 5 6 6 7 6 7 6 6 5 9 10 8 13 19 11 9 9 4 5 4 8 12 14 19 22 21 26 38
20 21 23 19 12 9 7 6 4 4 5 4 5 4 5 5 5 3 4 7 8 3 8 4 5 7 10 12 8 14 19 6 4 2 6 4 7 13 16 18 18 21 25 33 40
21 23 22 15 11 9 7 5 4 4 3 6 6 8 8 6 6 6 6 8 9 7 2 5 4 7 10 11 8 13 14 4 4 3 9 12 6 10 15 16 21 25 29 37 38
21 25 19 12 8 8 5 4 4 5 9 8 7 6 5 6 5 4 5 6 8 8 4 3 2 5 9 9 8 9 10 8 6 10 5 5 9 17 16 17 25 28 34 35 40
20 21 17 11 9 8 5 6 7 9 8 5 4 3 1 3 3 3 6 5 7 9 6 6 4 4 11 6 8 9 13 6 5 4 5 7 13 15 19 25 26 30 33 40 40
19 18 15 13 11 8 7 9 11 10 7 3 4 4 3 2 3 3 4 3 6 7 6 7 5 7 9 6 11 11 11 7 8 6 3 4 11 25 20 24 28 32 39 37 39
18 17 17 14 11 8 9 10 10 8 6 5 4 4 3 3 4 3 3 4 6 7 6 7 4 10 11 11 10 12 14 12 5 3 9 9 14 19 26 29 36 38 36 37 42
17 17 17 15 9 9 10 10 7 6 4 4 3 4 4 4 3 3 4 4 6 8 7 8 5 7 7 6 12 20 22 20 13 14 17 4 17 29 27 37 38 37 36 39 39
18 14 17 15 10 9 7 8 7 5 4 3 3 4 4 4 3 3 5 5 7 8 8 8 8 10 9 14 19 25 25 22 21 12 13 25 30 30 33 39 38 36 35 37 34
18 14 18 17 12 12 9 7 6 5 4 3 3 3 3 2 3 4 5 6 8 8 10 10 11 14 16 18 20 21 22 23 24 22 21 30 32 33 35 34 31 33 34 32 29
19 15 16 11 14 13 11 8 7 5 4 4 3 2 1 1 2 4 6 7 6 9 11 12 10 17 22 17 22 28 21 13 19 19 25 27 34 29 30 28 31 31 31 27 25
21 16 14 14 15 14 13 10 8 6 5 3 3 3 2 2 3 5 7 7 7 8 9 11 13 17 9 20 25 13 14 22 17 21 24 29 30 27 27 28 30 28 25 24 21
Wind_Direction
114 113 112 113 115 114 113 112 106 103 102 102 103 104 107 106 107 127 129 116 110 109 119 134 137 137 118 114 118 119 111 125 117 124 172 126 56 34 25 16 356 335 314 309 310
115 111 111 108 104 108 113 113 109 106 108 108 106 107 110 118 116 117 132 124 127 122 124 159 146 132 135 124 135 195 113 130 121 89 78 53 35 27 20 347 329 319 316 313 307
114 110 107 104 101 101 110 116 112 112 114 113 113 116 124 118 104 112 113 127 151 150 157 183 164 160 193 163 153 170 337 109 94 70 66 34 356 357 347 335 330 323 312 305 307
116 109 100 98 96 101 109 115 115 118 119 121 121 120 109 110 100 101 105 115 126 162 190 207 211 101 100 124 115 148 126 116 116 95 31 356 338 338 334 325 323 321 311 315 314
117 106 100 96 98 103 112 120 126 130 126 128 119 111 104 106 106 105 102 103 113 142 211 125 101 88 99 103 107 86 106 102 82 54 351 333 330 324 323 318 315 314 315 312 311
122 113 107 103 104 107 110 122 131 128 122 124 114 115 108 118 104 103 111 111 119 104 76 57 90 95 99 92 83 81 89 87 71 16 334 323 321 315 317 311 315 313 315 322 328
134 123 120 115 113 112 117 117 118 119 117 118 115 113 96 102 101 102 107 108 108 98 99 79 68 72 87 90 80 73 50 32 17 338 334 331 323 320 320 323 324 328 326 325 330
143 130 132 125 120 118 120 119 120 123 121 115 106 95 109 105 106 98 93 92 96 91 78 84 80 94 84 73 71 75 23 341 335 341 340 335 329 330 330 327 324 319 318 320 322
151 140 141 129 121 119 120 120 121 118 113 111 109 103 104 108 102 101 92 84 94 94 87 86 76 99 92 41 49 39 341 320 322 333 324 328 322 326 326 322 313 309 311 316 320
155 143 144 129 129 122 118 112 110 111 102 97 93 94 112 115 109 99 93 103 94 97 100 111 87 65 33 359 337 342 23 311 316 322 319 323 321 316 314 307 303 302 307 316 318
155 148 145 135 133 127 126 122 113 112 85 110 100 104 107 109 109 103 85 97 102 80 64 65 30 19 356 337 314 312 358 296 305 313 315 316 309 305 306 302 299 302 312 311 319
156 153 146 141 140 129 121 117 103 105 97 92 89 87 86 98 101 93 80 63 84 99 110 77 48 22 2 13 346 284 292 313 319 319 317 309 303 296 303 298 306 307 305 306 322
158 150 147 144 138 132 127 113 108 100 88 85 85 82 86 91 95 85 73 56 57 62 40 29 25 9 13 19 360 333 319 311 312 317 322 311 290 291 292 292 303 301 297 312 328
155 151 147 149 143 134 126 114 119 102 81 62 81 82 86 91 77 76 66 41 40 38 60 57 35 353 16 10 2 354 333 317 324 330 310 310 288 287 286 288 294 294 307 320 324
156 156 153 151 142 136 128 123 130 109 76 52 67 90 91 87 94 62 53 53 54 55 41 25 18 15 17 2 3 355 342 321 315 316 306 290 265 280 279 278 290 300 311 318 322
158 157 149 145 139 136 126 120 132 112 78 87 95 103 96 79 73 66 51 49 46 68 41 38 26 20 15 2 3 355 352 326 324 321 277 283 279 277 274 300 299 307 304 311 329
158 153 148 144 137 129 125 133 117 62 125 115 98 82 70 63 63 66 63 55 46 27 15 11 20 11 4 7 9 1 8 353 341 323 247 312 265 271 290 299 300 296 301 320 332
160 155 151 143 129 122 121 126 92 139 130 122 101 79 54 55 51 42 39 46 32 23 23 347 340 7 0 4 2 8 18 37 294 284 297 290 251 297 302 290 291 299 315 328 331
161 160 158 153 134 134 117 113 123 150 139 129 106 65 40 40 49 49 48 36 25 24 18 346 287 339 358 357 8 360 359 343 273 286 286 265 284 305 301 298 310 316 322 327 338
165 169 175 171 147 143 130 109 123 126 139 145 127 148 110 40 51 31 26 22 14 10 10 353 331 339 343 351 346 344 351 336 326 317 295 282 293 291 310 313 317 315 321 333 335
165 168 167 161 148 135 123 123 129 133 133 137 126 128 97 74 64 74 35 28 8 1 1 346 342 330 330 320 327 325 328 325 313 263 244 296 296 315 312 315 314 316 328 332 337
164 164 164 157 146 133 128 132 134 131 125 123 108 96 88 78 87 77 27 19 1 355 360 345 317 322 317 308 311 312 315 318 307 272 251 270 287 323 318 311 320 327 327 331 335
169 170 171 163 154 139 137 136 138 134 123 117 129 113 107 85 118 70 27 10 359 351 345 340 317 319 325 311 322 318 316 314 306 289 276 247 303 313 309 320 324 323 325 329 328
175 175 181 180 163 152 145 142 147 144 134 139 146 127 110 92 80 49 20 5 350 343 332 328 307 299 277 301 307 304 306 305 297 268 276 284 306 300 308 316 317 318 320 322 324
183 182 182 193 181 172 170 163 162 164 176 182 175 152 116 94 80 32 13 2 348 342 330 324 313 310 314 315 307 308 304 303 291 288 274 308 306 303 302 304 311 315 318 321 325
190 189 191 188 192 184 183 179 178 186 195 206 203 192 142 86 34 1 351 352 345 334 328 327 310 318 323 326 318 313 311 307 308 301 298 310 311 312 311 312 315 317 316 320 330
198 197 196 196 196 197 196 195 197 199 212 220 229 236 249 301 327 330 325 324 322 322 328 325 319 320 307 319 314 312 326 325 311 316 312 309 316 312 312 312 313 315 319 327 336